[[{"header":{"parameterUnit":"m.s-1","parameterCategory":1,"la1":30.2991,"la2":30.254,"lo1":-89.0895,"lo2":-89.0444,"dy":0.0017,"dx":0.0017,"nx":28,"ny":28,"refTime":"2024-03-17T03:00:00:Z","depth":0,"parameterNumber":2,"parameterNumberName":"U-component_of_WINDS"},"data":[0,0,0,0,0,0,0,0,0,0,0,0,0,0,0,0,0,0,0,0,0,0,0,0,0,0,0,0,0,0,0,0,0,0,0,0,0,0,0,0,0,0,0,0,0,0,0,0,0,0,0,0,0,0,0,0,0,0,-0.3785,-0.3786,0,-0.386,-0.3861,-0.3862,-0.3845,-0.3843,-0.3842,-0.384,-0.392,-0.3924,-0.3927,0,0,0,0,0,0,0,0,0,0,0,0,0,-0.3629,-0.3632,-0.3785,-0.3786,-0.3787,-0.386,-0.3861,-0.3862,-0.3845,-0.3843,-0.3841,-0.384,-0.3919,-0.3923,-0.3927,0,0,0,0,0,0,0,0,0,0,0,0,0,-0.37,-0.3633,-0.3785,-0.3787,-0.3788,-0.386,-0.3861,-0.3863,-0.3845,-0.3843,-0.3841,-0.3839,-0.3918,-0.3923,-0.3928,-0.4003,0,0,-0.3944,-0.3946,0,0,0,0,0,0,0,0,-0.3696,-0.3706,-0.3786,-0.3787,-0.3788,-0.3841,-0.3835,-0.391,-0.3846,-0.3824,-0.384,-0.3838,-0.3896,-0.3903,-0.3922,-0.4007,-0.401,-0.3944,-0.3947,-0.395,-0.3951,0,0,0,0,0,0,0,-0.3691,-0.3702,-0.3815,-0.3787,-0.3789,-0.3785,-0.3793,-0.3849,-0.3871,-0.3825,-0.3824,-0.3833,-0.3896,-0.3917,-0.3923,-0.4012,-0.3944,-0.3949,-0.3952,-0.3954,-0.4162,-0.4165,0,0,0,0,0,0,-0.3685,-0.3698,-0.3813,-0.3817,-0.3736,-0.379,-0.3798,-0.3826,-0.387,-0.3875,-0.3835,-0.3832,-0.3909,-0.3917,-0.3926,-0.4017,-0.395,-0.3954,-0.3957,-0.416,-0.4163,-0.4165,0,0,0,0,0,0,-0.3681,-0.3695,-0.381,-0.3758,-0.3772,-0.3795,-0.3826,-0.3829,-0.3849,-0.3878,-0.3882,-0.3852,-0.3907,-0.3919,-0.3984,-0.402,-0.3957,-0.3962,-0.4157,-0.4161,-0.4164,-0.4201,0,0,0,0,0,0,-0.3677,-0.3694,-0.3723,-0.3758,-0.3775,-0.3866,-0.3828,-0.3832,-0.3858,-0.3855,-0.3895,-0.3899,-0.3907,-0.3976,-0.3989,-0.4026,-0.3966,-0.4154,-0.4159,-0.4163,-0.4196,-0.4205,-0.4213,0,0,0,0,0,-0.3672,-0.3731,-0.3724,-0.3738,-0.3811,-0.3868,-0.3878,-0.3884,-0.3861,-0.389,-0.3908,-0.3898,-0.4013,-0.3983,-0.3997,-0.4036,-0.4152,-0.4157,-0.4163,-0.4193,-0.4203,-0.4212,0,0,0,0,0,0,-0.37,-0.3736,-0.3729,-0.3801,-0.3831,-0.3865,-0.3902,-0.3895,-0.3934,-0.393,-0.3937,-0.3946,-0.4012,-0.4031,-0.3996,-0.4111,-0.4079,-0.4088,-0.4097,-0.4108,-0.4116,-0.4111,-0.397,0,0,0,0,0,-0.3715,-0.3757,-0.3786,-0.3847,-0.3863,-0.388,-0.3905,-0.3907,-0.394,-0.3953,-0.3975,-0.4008,-0.4051,-0.408,-0.4122,-0.4198,-0.4207,-0.4232,-0.424,-0.4246,-0.4254,-0.4296,-0.4308,-0.4183,-0.4183,-0.4183,0,0,-0.3746,-0.377,-0.3797,-0.3854,-0.3878,-0.3922,-0.3891,-0.394,-0.3974,-0.3961,-0.4024,-0.4041,-0.4078,-0.4149,-0.4181,-0.4166,-0.429,-0.4253,-0.4258,-0.4263,-0.4303,-0.4315,-0.4325,-0.4187,-0.4186,-0.4186,0,0,-0.3825,-0.3847,-0.3901,-0.3925,-0.3961,-0.3972,-0.3984,-0.4019,-0.4029,-0.4092,-0.4083,-0.4123,-0.4198,-0.4225,-0.4248,-0.4335,-0.4328,-0.4349,-0.4392,-0.4432,-0.4442,-0.4451,-0.4483,-0.4494,-0.4356,-0.4356,-0.4356,0,-0.386,-0.3926,-0.3929,-0.3979,-0.4004,-0.3993,-0.4047,-0.4071,-0.4119,-0.4137,-0.4119,-0.4212,-0.4236,-0.4313,-0.4334,-0.4353,-0.4368,-0.4345,-0.444,-0.4449,-0.4457,-0.4488,-0.45,-0.4359,-0.4358,-0.4358,-0.4358,0,-0.3967,-0.4013,-0.4052,-0.4097,-0.4127,-0.4179,-0.419,-0.422,-0.4219,-0.4231,-0.4295,-0.4323,-0.437,-0.4388,-0.4388,-0.4465,-0.4454,-0.4438,-0.4407,-0.4472,-0.45,-0.4512,-0.4362,-0.4361,-0.4361,-0.436,0,0,-0.4069,-0.4114,-0.4128,-0.4149,-0.4187,-0.4223,-0.4274,-0.4318,-0.4344,-0.4377,-0.442,-0.4483,-0.4468,-0.4494,-0.4497,-0.4532,-0.46,-0.4511,-0.4512,-0.4528,-0.4687,-0.47,-0.4714,-0.4594,-0.4596,-0.4598,-0.4684,0,-0.4152,-0.4242,-0.4245,-0.4327,-0.437,-0.4359,-0.4403,-0.4431,-0.4444,-0.4483,-0.4497,-0.4541,-0.4517,-0.4533,-0.4567,-0.4585,-0.4633,-0.4578,-0.4636,-0.4638,-0.4629,-0.4729,-0.4743,-0.4823,-0.4696,-0.4698,-0.4699,0,-0.4263,-0.4298,-0.4384,-0.4415,-0.4433,-0.4473,-0.4514,-0.455,-0.4582,-0.4589,-0.4617,-0.4614,-0.4667,-0.4631,-0.4704,-0.4667,-0.4691,-0.4702,-0.4706,-0.4713,-0.4674,-0.474,-0.4849,-0.4862,-0.4717,-0.4715,-0.4714,0,-0.433,-0.4398,-0.4458,-0.4476,-0.4514,-0.4542,-0.4559,-0.4588,-0.4615,-0.465,-0.4668,-0.4709,-0.4733,-0.4765,-0.4774,-0.4747,-0.4846,-0.4812,-0.4854,-0.4854,-0.4878,-0.4876,-0.4994,-0.489,-0.489,-0.489,-0.4889,0,-0.4424,-0.4477,-0.4489,-0.4526,-0.4585,-0.4589,-0.4647,-0.4662,-0.4688,-0.4729,-0.4721,-0.4759,-0.4767,-0.4807,-0.4814,-0.4873,-0.4883,-0.4891,-0.4892,-0.4893,-0.4892,-0.491,-0.4905,-0.4893,-0.4892,-0.4892,-0.4891,0,-0.451,-0.452,-0.4585,-0.4614,-0.4623,-0.4665,-0.469,-0.4726,-0.4737,-0.4788,-0.48,-0.4817,-0.4864,-0.4875,-0.493,-0.4934,-0.5005,-0.5001,-0.4995,-0.4995,-0.5037,-0.5033,-0.5171,-0.5189,-0.5073,-0.5074,-0.5075,0,-0.457,-0.461,-0.4644,-0.4669,-0.4688,-0.4729,-0.4756,-0.476,-0.4788,-0.4826,-0.4858,-0.4903,-0.4939,-0.5014,-0.5032,-0.5074,-0.5071,-0.5116,-0.5078,-0.5076,-0.5073,-0.5071,-0.5076,-0.5124,-0.5126,-0.5127,-0.5127,0,-0.4676,-0.4679,-0.4717,-0.4756,-0.4788,-0.4819,-0.4849,-0.4871,-0.488,-0.4911,-0.4958,-0.4986,-0.5041,-0.5087,-0.5129,-0.5147,-0.5139,-0.5139,-0.5151,-0.5153,-0.5148,-0.5152,-0.5016,-0.5136,-0.5136,-0.5135,-0.5134,-0.5134,-0.4752,-0.4787,-0.4816,-0.4858,-0.4881,-0.4909,-0.4944,-0.4958,-0.4997,-0.5042,-0.5042,-0.5093,-0.5123,-0.5178,-0.5198,-0.5239,-0.5225,-0.5243,-0.5247,-0.5252,-0.5256,-0.514,-0.5246,-0.5246,-0.5246,-0.5245,-0.5245,0,-0.4859,-0.4876,-0.4915,-0.4957,-0.499,-0.4978,-0.501,-0.5039,-0.5084,-0.5111,-0.5147,-0.52,-0.5243,-0.5264,-0.5307,-0.5335,-0.5332,-0.5346,-0.5345,-0.5349,-0.5266,-0.5251,-0.5347,-0.5347,-0.5347,-0.5347,-0.5347,-0.5347,-0.4919,-0.4978,-0.4983,-0.5053,-0.507,-0.5119,-0.5139,-0.5165,-0.5187,-0.5247,-0.5282,-0.5294,-0.532,-0.5364,-0.5403,-0.5408,-0.5424,-0.544,-0.5444,-0.5365,-0.5355,-0.5345,-0.5332,-0.5443,-0.5444,-0.5524,-0.5525,-0.5525]},{"header":{"parameterUnit":"m.s-1","parameterCategory":1,"la1":30.2991,"la2":30.254,"lo1":-89.0895,"lo2":-89.0444,"dy":0.0017,"dx":0.0017,"nx":28,"ny":28,"refTime":"2024-03-17T03:00:00:Z","depth":0,"parameterNumber":3,"parameterNumberName":"V-component_of_WINDS"},"data":[0,0,0,0,0,0,0,0,0,0,0,0,0,0,0,0,0,0,0,0,0,0,0,0,0,0,0,0,0,0,0,0,0,0,0,0,0,0,0,0,0,0,0,0,0,0,0,0,0,0,0,0,0,0,0,0,0,0,-7.8602,-7.8603,0,-7.8679,-7.868,-7.8681,-7.8577,-7.8573,-7.857,-7.8566,-7.864,-7.8645,-7.8651,0,0,0,0,0,0,0,0,0,0,0,0,0,-7.8359,-7.8364,-7.8602,-7.8603,-7.8604,-7.8679,-7.868,-7.8681,-7.8578,-7.8573,-7.8569,-7.8565,-7.8638,-7.8645,-7.8651,0,0,0,0,0,0,0,0,0,0,0,0,0,-7.8453,-7.8366,-7.8602,-7.8561,-7.8559,-7.8679,-7.868,-7.8682,-7.8579,-7.8573,-7.8568,-7.8562,-7.8636,-7.8644,-7.8652,-7.8814,0,0,-7.8677,-7.8681,0,0,0,0,0,0,0,0,-7.8448,-7.8462,-7.8566,-7.8564,-7.8561,-7.8613,-7.8622,-7.8726,-7.858,-7.8571,-7.8566,-7.856,-7.8635,-7.8643,-7.867,-7.8818,-7.8821,-7.8678,-7.8683,-7.8686,-7.8689,0,0,0,0,0,0,0,-7.8442,-7.8458,-7.8632,-7.8568,-7.8565,-7.8538,-7.8545,-7.8641,-7.8633,-7.8571,-7.8564,-7.8575,-7.8633,-7.8662,-7.8671,-7.8822,-7.8678,-7.8685,-7.869,-7.8693,-7.9107,-7.9112,0,0,0,0,0,0,-7.8441,-7.8454,-7.863,-7.8634,-7.849,-7.8547,-7.8555,-7.8602,-7.8632,-7.8631,-7.858,-7.857,-7.8651,-7.8661,-7.8673,-7.8865,-7.8686,-7.8694,-7.8699,-7.9101,-7.9108,-7.9114,0,0,0,0,0,0,-7.8436,-7.8457,-7.8627,-7.8542,-7.8562,-7.8557,-7.8611,-7.8606,-7.8636,-7.8638,-7.8636,-7.8611,-7.8647,-7.8661,-7.878,-7.8866,-7.8698,-7.8705,-7.9093,-7.9103,-7.9111,-7.925,0,0,0,0,0,0,-7.8429,-7.8456,-7.8519,-7.8545,-7.8567,-7.8735,-7.8616,-7.8612,-7.8651,-7.8639,-7.8667,-7.8667,-7.8644,-7.8769,-7.8788,-7.8874,-7.8711,-7.9086,-7.9098,-7.9108,-7.9238,-7.9263,-7.9284,0,0,0,0,0,-7.8421,-7.8554,-7.8523,-7.8544,-7.8645,-7.874,-7.8752,-7.8725,-7.8658,-7.872,-7.8722,-7.8666,-7.8854,-7.8782,-7.8803,-7.8893,-7.908,-7.9094,-7.9107,-7.9227,-7.9258,-7.9284,0,0,0,0,0,0,-7.8536,-7.8556,-7.8522,-7.8667,-7.8703,-7.8722,-7.88,-7.8758,-7.8811,-7.8798,-7.8759,-7.8767,-7.8894,-7.8905,-7.8824,-7.9051,-7.8955,-7.8974,-7.9039,-7.9068,-7.9091,-7.9086,-7.8718,0,0,0,0,0,-7.8579,-7.8656,-7.8668,-7.8795,-7.8815,-7.8805,-7.8845,-7.8821,-7.8855,-7.8869,-7.8879,-7.8914,-7.898,-7.9025,-7.9086,-7.9239,-7.9243,-7.9311,-7.9334,-7.9353,-7.937,-7.9451,-7.9482,-7.916,-7.9159,-7.9159,0,0,-7.8666,-7.8687,-7.8737,-7.8819,-7.8843,-7.8923,-7.8818,-7.8906,-7.8964,-7.8882,-7.8995,-7.9004,-7.904,-7.9177,-7.9237,-7.919,-7.946,-7.9371,-7.9386,-7.9392,-7.9469,-7.9499,-7.9526,-7.9169,-7.9167,-7.9166,0,0,-7.8867,-7.8891,-7.9,-7.9027,-7.9067,-7.906,-7.9086,-7.9112,-7.9116,-7.923,-7.917,-7.9237,-7.9353,-7.9381,-7.941,-7.9624,-7.9574,-7.9644,-7.9766,-7.9846,-7.9871,-7.9894,-7.997,-7.9998,-7.9661,-7.9661,-7.9661,0,-7.8971,-7.909,-7.906,-7.9153,-7.919,-7.9122,-7.9231,-7.9259,-7.9316,-7.9342,-7.9289,-7.9433,-7.9452,-7.9595,-7.9647,-7.9673,-7.9701,-7.9641,-7.9871,-7.9893,-7.9913,-7.9985,-8.0014,-7.967,-7.9669,-7.9668,-7.9667,0,-7.9216,-7.9299,-7.9382,-7.9442,-7.9488,-7.9588,-7.9572,-7.9623,-7.9595,-7.9593,-7.9709,-7.973,-7.9795,-7.9827,-7.9799,-7.9966,-7.9935,-7.9877,-7.978,-7.9953,-8.002,-8.0047,-7.9682,-7.9679,-7.9676,-7.9674,0,0,-7.949,-7.9534,-7.9565,-7.9591,-7.9631,-7.9694,-7.9791,-7.9856,-7.99,-7.9942,-8.0022,-8.0122,-8.0068,-8.0102,-8.0077,-8.0148,-8.0316,-8.008,-8.008,-8.0124,-8.0501,-8.0545,-8.0577,-8.0283,-8.0288,-8.0292,-8.0498,0,-7.9692,-7.9862,-7.9839,-8.0002,-8.0079,-8.0015,-8.01,-8.0132,-8.0133,-8.0197,-8.0196,-8.0268,-8.0192,-8.0212,-8.0279,-8.0281,-8.0391,-8.0266,-8.0356,-8.036,-8.035,-8.0613,-8.0659,-8.0852,-8.0524,-8.0528,-8.0532,0,-7.9949,-8.0004,-8.0176,-8.0204,-8.0235,-8.0312,-8.037,-8.0433,-8.0468,-8.0463,-8.0502,-8.0465,-8.056,-8.0463,-8.0594,-8.0509,-8.0545,-8.0551,-8.0558,-8.0565,-8.0456,-8.0627,-8.0913,-8.0942,-8.0573,-8.0569,-8.0566,0,-8.0133,-8.0249,-8.0367,-8.0391,-8.0427,-8.0483,-8.05,-8.053,-8.0571,-8.0622,-8.0648,-8.0708,-8.0741,-8.0788,-8.0768,-8.0698,-8.0903,-8.0803,-8.0901,-8.0902,-8.0947,-8.0944,-8.1243,-8.097,-8.0969,-8.0969,-8.0968,0,-8.0361,-8.0469,-8.045,-8.0523,-8.0641,-8.0612,-8.073,-8.0739,-8.0766,-8.0838,-8.0786,-8.0855,-8.0824,-8.0889,-8.0874,-8.0985,-8.1,-8.0998,-8.0993,-8.1003,-8.1003,-8.1026,-8.1012,-8.0976,-8.0975,-8.0973,-8.0972,0,-8.0586,-8.0578,-8.0703,-8.0728,-8.0737,-8.0823,-8.0843,-8.091,-8.0908,-8.1,-8.1019,-8.1015,-8.109,-8.1074,-8.1155,-8.1145,-8.1285,-8.1262,-8.1274,-8.1268,-8.1367,-8.1358,-8.169,-8.1732,-8.1432,-8.1435,-8.1438,0,-8.0732,-8.0814,-8.0849,-8.0895,-8.0917,-8.0991,-8.1033,-8.1008,-8.1054,-8.1101,-8.1163,-8.1233,-8.1289,-8.1411,-8.1414,-8.1476,-8.1455,-8.1567,-8.1463,-8.1472,-8.1457,-8.1452,-8.146,-8.1587,-8.1591,-8.1593,-8.1596,0,-8.0992,-8.0985,-8.1049,-8.1113,-8.1166,-8.1214,-8.1257,-8.1297,-8.1275,-8.1329,-8.1407,-8.145,-8.1534,-8.1605,-8.1663,-8.1678,-8.1634,-8.1628,-8.1654,-8.1666,-8.167,-8.1669,-8.133,-8.1621,-8.1618,-8.1616,-8.1615,-8.1614,-8.1182,-8.1252,-8.1289,-8.1362,-8.1392,-8.1434,-8.1499,-8.1506,-8.157,-8.1639,-8.1619,-8.1707,-8.174,-8.1814,-8.1836,-8.1904,-8.1861,-8.1899,-8.1908,-8.1918,-8.1931,-8.1659,-8.1914,-8.1913,-8.1912,-8.1912,-8.1911,0,-8.144,-8.1461,-8.1529,-8.1592,-8.165,-8.1605,-8.165,-8.1701,-8.178,-8.1816,-8.1872,-8.1961,-8.203,-8.2038,-8.2103,-8.2155,-8.2136,-8.2173,-8.2169,-8.2173,-8.1965,-8.1936,-8.2187,-8.2187,-8.2187,-8.2187,-8.2187,-8.2187,-8.1581,-8.1698,-8.1695,-8.1825,-8.1844,-8.1932,-8.1962,-8.2,-8.2028,-8.2131,-8.2189,-8.2194,-8.2219,-8.2285,-8.2346,-8.2346,-8.2372,-8.2417,-8.241,-8.2215,-8.2188,-8.2162,-8.2134,-8.2423,-8.2424,-8.2613,-8.2615,-8.2616]}]]